STARLINK-33650, 63321

Orbit data source: Space-Track

STARLINK-33650, 63321 is a payload satellite owned by SpaceX/Seattle (US) in LEO that was launched on Tue, 18 Mar 2025 UTC via an FALCON 9 launch vehicle from the Air Force Eastern Test Range (AFETR). Payload-class satellites include a variety of spacecraft equipped with specific instruments for various scientific and technological missions. These include communications satellites like Starlink; space stations such as the ISS; scientific satellites like the Hubble; Earth observation satellites from companies like Planet Labs, Umbra, and HawkEye 360; GPS; miniature CubeSats for education and research; and military/defense satellites.

Loading next visibility...
Identifier
63321, 2025-057Q
Orbit
LEO
Country
Flag of USUS
Related business
Manufacturer
SpaceX/Seattle
Mission
Operational Commercial Communications
Bus & Motor
STARLINK V2MO, Unknown motor
Mass
575 kg wet, ~530 kg dry
Launch date (UTC)
2025-03-18 (6 months ago)
Launch vehicle
FALCON 9
Launch site
Air Force Eastern Test Range (AFETR)
Object type
Payload
Rocket body
Debris
Shape & HBR
Box + 1 Pan, 14.5 m
Radar Cross Section
41.120 m², Large (>1 m²)

Expand to show TLE details & history
Last TLE update: 23 hours ago

TLE from 23 hours ago
0 STARLINK-33650
1 63321U 25057Q   25260.43938167  .00016883  00000-0  62194-3 0  9991
2 63321  42.9940 289.0554 0000540 303.0214  57.0585 15.27563929 29246
Epoch: 2025-09-17T10:32Z
TLE epoch observation values (Epoch: 2025-09-17T10:32:42.576Z)
Latitude
-0.00005°
Longitude
134.26263°
Altitude
482.671 km
Speed
7.626 km/s
True Right ascension
19h 16m 13s
True Declination
0° 00' 00"
Sunlit
Object was in full shadow at epoch
Visualization orbit readout
Latitude
Unknown
Longitude
Unknown
Altitude
Unknown
Speed
Unknown
Apparent Right ascension
Unknown
Apparent Declination
Unknown
Sunlit
N/A
Visualization observer readout
Local Sidereal Time
02:12:51
Azimuth
Unknown
Elevation
Unknown
Doppler factor
Unknown
Orbital elements
Apogee altitude
485.414 km
Perigee altitude
484.673 km
Semi-major axis
6,863.18 km
Eccentricity
0.00005
Inclination
42.994°
RAAN
289.0554°
Arg. of periapsis
303.0214°
True anomaly
57.06369°
Mean anomaly
57.0585°
Eccentric anomaly
57.0611°
Mean motion
3.81729 °/min
Orbital period
94.31 mins
BSTAR
0.00062194
Loading maneuver chart data...
Computing Atmospheric mass density...
Loading historical data...
Loading historical data...
Loading historical data...
Loading historical data...
Loading historical data...
Loading historical data...
Loading historical data...

Documentation

Showing up to 5 results
|